Regional Weather Roundup
Issued by NWS

Home | Current Version | Previous Version | Graphics & Text | Print | Product List | Glossary On
Versions: 1 2 3 4 5 6 7 8 9 10 11 12 13 14 15 16 17 18 19 20 21 22 23 24 25 26 27 28 29 30 31 32 33 34 35 36 37 38 39 40 41 42 43 44 45 46 47 48 49 50
000
ASUS45 KSLC 170310
RWRUT

UTAH REGIONAL WEATHER ROUNDUP
NATIONAL WEATHER SERVICE SALT LAKE CITY UT
900 PM MDT TUE SEP 16 2014

UTZ001>011-023>025-170400-

NORTHERN UTAH

CITY           SKY/WX    TMP DP  RH WIND       PRES   REMARKS
HILL AFB       CLEAR     76  42  29 E13       30.01S
LOGAN          CLEAR     73  50  44 S7        29.98S
OGDEN          CLEAR     74  45  35 S8        29.98R
PROVO AIRPORT  CLEAR     73  48  40 SE7       30.02R
SALT LAKE CITY CLEAR     76  44  32 S6        29.96R
VERNAL         PTCLDY    73  41  31 W3        30.10S
WENDOVER       CLEAR     81  39  22 W5        29.94R
HEBER CITY     CLEAR     57  45  62 CALM      30.11R
WEST JORDAN    CLEAR     75  39  27 SW9       30.01R

$$

UTZ012>022-026-027-170400-

SOUTHERN UTAH

CITY           SKY/WX    TMP DP  RH WIND       PRES   REMARKS
BRYCE CANYON   CLEAR     55  44  66 CALM      30.29R
CEDAR CITY     PTCLDY    73  42  32 SE7       30.10R
MILFORD        CLEAR     72  37  28 CALM      30.03R
MOAB/CYNLANDS  CLEAR     74  41  30 SW6       30.02R
PRICE          CLEAR     74  34  23 E6        30.14R
ST GEORGE      CLEAR     90  48  24 SW7       29.89R
KANAB            N/A     75  41  29 E6        30.10R

$$

REGIONAL REPORTS     COLORADO/ARIZONA

CITY           SKY/WX    TMP DP  RH WIND       PRES   REMARKS
CRAIG, CO      PTCLDY    56  43  61 CALM      30.19R
GRAND JUNCTION CLEAR     67  43  41 E3        30.07R
RIFLE          PTCLDY    63  45  51 SE7       30.14R
MONTROSE       CLEAR     68  45  43 S9        30.17R
CORTEZ         CLEAR     62  50  64 N5        30.18R
PAGE, AZ       MOCLDY    83  43  24 S6        30.02R
GRAND CANYON   CLOUDY    69  47  45 E6        30.24R
KINGMAN        CLOUDY    70  61  73 N12       30.05R
FLAGSTAFF      CLOUDY    60  56  86 CALM      30.27R

$$

REGIONAL REPORTS    NEVADA/IDAHO/WYOMING

CITY           SKY/WX    TMP DP  RH WIND       PRES   REMARKS
LAS VEGAS, NV  PTCLDY    89  60  37 S25G35    29.80R
ELY            CLEAR     66  37  34 S12       30.12R
ELKO           CLEAR     78  33  19 VRB5      29.99R
POCATELLO, ID  CLEAR     74  37  26 S7        29.98R
BURLEY         CLEAR     67  51  56 CALM      29.94R
EVANSTON, WY   CLEAR     69  35  28 W5        30.23R
ROCK SPRINGS   MOCLDY    66  37  34 SW8       30.21S

$$



USA.gov is the U.S. government's official web portal to all federal, state and local government web resources and services.